JAF33A EBAW-LEMG

Flight info

Callsign JAF33A
Flight time N/A
Altitude 39000
Route NIK N872 LESDO DCT KOVIN DCT DUCRA UM728 RESMI UN857 DISAK DCT ARKIP DCT ARNAV DCT LMG DCT UVELI DCT OSMOB DCT VAVIX DCT NETUK DCT PPN DCT NOLSA N857 VASUM DCT BANEV DCT BAN DCT PINAR DCT CJN DCT INTAX DCT NASOS DCT ANZAN DCT BLN
Aircraft E190/M-SDE3GILORVW/S

Departure

Time 2026-05-06 11:53
Airport Antwerp International Airport (Deurne) (EBAW)

Arrival

Time N/A
Airport Málaga-Costa del Sol Airport (LEMG)
Time Latitude Longitude Altitude Speed Heading
2026-05-06 11:10 51.18807 4.45268 46 ft 0 kts 328°
2026-05-06 11:50 51.18807 4.45267 46 ft 0 kts 328°
2026-05-06 11:50 51.18811 4.45263 46 ft 0 kts 328°
2026-05-06 11:51 51.18819 4.45256 46 ft 1 kts 328°
2026-05-06 11:51 51.18839 4.45252 46 ft 5 kts 26°
2026-05-06 11:51 51.18878 4.45334 46 ft 12 kts 57°
2026-05-06 11:51 51.18938 4.45379 46 ft 10 kts 33°
2026-05-06 11:52 51.19002 4.45500 46 ft 15 kts 38°
2026-05-06 11:52 51.19093 4.45440 46 ft 16 kts 320°
2026-05-06 11:52 51.19184 4.45318 45 ft 16 kts 332°
2026-05-06 11:52 51.19212 4.45361 45 ft 0 kts 110°
2026-05-06 11:53 51.19167 4.45564 46 ft 61 kts 109°
2026-05-06 11:53 51.18924 4.46643 47 ft 143 kts 109°
2026-05-06 11:53 51.18560 4.48247 651 ft 154 kts 107°
2026-05-06 11:54 51.17928 4.49653 940 ft 170 kts 145°
2026-05-06 11:54 51.16786 4.50065 1177 ft 168 kts 191°
2026-05-06 11:54 51.15693 4.49509 1433 ft 172 kts 199°
2026-05-06 11:54 51.14449 4.48894 1811 ft 205 kts 195°
2026-05-06 11:55 51.13057 4.48300 2454 ft 220 kts 195°
2026-05-06 11:55 51.11819 4.46934 3225 ft 225 kts 239°
2026-05-06 11:55 51.11442 4.44630 4018 ft 223 kts 275°
2026-05-06 11:55 51.11514 4.42152 4897 ft 226 kts 276°
2026-05-06 11:56 51.11763 4.39714 5723 ft 225 kts 291°
2026-05-06 11:56 51.12283 4.37358 6557 ft 228 kts 292°
2026-05-06 11:56 51.12815 4.34970 7266 ft 239 kts 292°
2026-05-06 11:56 51.13410 4.32309 7647 ft 268 kts 291°
2026-05-06 11:57 51.14047 4.29446 8305 ft 284 kts 291°
2026-05-06 11:57 51.14708 4.26474 9237 ft 289 kts 291°
2026-05-06 11:57 51.15355 4.23504 10220 ft 290 kts 286°
2026-05-06 11:57 51.15369 4.20302 11067 ft 299 kts 255°
2026-05-06 11:58 51.14293 4.17403 11736 ft 313 kts 224°
2026-05-06 11:58 51.12394 4.15679 12348 ft 326 kts 196°
2026-05-06 11:58 51.10171 4.14716 13107 ft 334 kts 197°
2026-05-06 11:58 51.07953 4.13619 13917 ft 338 kts 198°
2026-05-06 11:59 51.05711 4.12439 14780 ft 340 kts 199°
2026-05-06 11:59 51.03475 4.11234 15662 ft 342 kts 199°
2026-05-06 11:59 51.01225 4.10012 16504 ft 345 kts 200°
2026-05-06 11:59 50.98970 4.08783 17314 ft 348 kts 200°
2026-05-06 12:00 50.96677 4.07533 18111 ft 351 kts 200°
2026-05-06 12:00 50.94346 4.06263 18913 ft 354 kts 200°
2026-05-06 12:00 50.92014 4.04993 19675 ft 358 kts 200°
2026-05-06 12:00 50.89646 4.03705 20413 ft 362 kts 200°
2026-05-06 12:01 50.87678 4.02613 21010 ft 365 kts 202°
2026-05-06 12:01 50.85323 4.01102 21712 ft 369 kts 202°
2026-05-06 12:01 50.82946 3.99574 22407 ft 372 kts 203°
2026-05-06 12:01 50.80522 3.98020 23094 ft 376 kts 202°
2026-05-06 12:02 50.78082 3.96458 23754 ft 380 kts 202°
2026-05-06 12:02 50.75656 3.94906 24414 ft 384 kts 202°
2026-05-06 12:02 50.73217 3.93348 25102 ft 386 kts 202°
2026-05-06 12:02 50.70731 3.91762 25808 ft 389 kts 202°
2026-05-06 12:03 50.68260 3.90187 26483 ft 391 kts 202°
2026-05-06 12:03 50.65718 3.88570 27140 ft 394 kts 202°
2026-05-06 12:03 50.63201 3.86970 27750 ft 397 kts 201°
2026-05-06 12:03 50.60663 3.85357 28349 ft 401 kts 201°
2026-05-06 12:04 50.58051 3.83701 28932 ft 405 kts 201°
2026-05-06 12:04 50.55446 3.81963 29519 ft 408 kts 203°
2026-05-06 12:04 50.52874 3.80197 30085 ft 412 kts 202°
2026-05-06 12:04 50.50223 3.78385 30653 ft 416 kts 202°
2026-05-06 12:05 50.47598 3.76594 31167 ft 419 kts 202°
2026-05-06 12:05 50.44904 3.74760 31632 ft 423 kts 202°
2026-05-06 12:05 50.42209 3.72927 32111 ft 426 kts 202°
2026-05-06 12:05 50.39463 3.71061 32658 ft 427 kts 202°
2026-05-06 12:06 50.36723 3.69202 33243 ft 427 kts 203°
2026-05-06 12:06 50.34006 3.67360 33782 ft 425 kts 203°
2026-05-06 12:06 50.31331 3.65551 34232 ft 424 kts 203°
2026-05-06 12:06 50.28603 3.63709 34681 ft 424 kts 203°
2026-05-06 12:07 50.25917 3.61897 35087 ft 423 kts 203°
2026-05-06 12:07 50.23283 3.60122 35465 ft 421 kts 203°
2026-05-06 12:07 50.20627 3.58335 35869 ft 420 kts 203°
2026-05-06 12:07 50.17942 3.56530 36223 ft 419 kts 204°
2026-05-06 12:08 50.15275 3.54739 36550 ft 418 kts 204°
2026-05-06 12:08 50.12601 3.52946 36859 ft 417 kts 204°
2026-05-06 12:08 50.09965 3.51181 37141 ft 417 kts 204°
2026-05-06 12:08 50.07307 3.49403 37433 ft 417 kts 204°
2026-05-06 12:09 50.04664 3.47637 37702 ft 417 kts 204°
2026-05-06 12:09 50.02023 3.45875 37968 ft 417 kts 204°
2026-05-06 12:09 49.99394 3.44122 38231 ft 416 kts 204°
2026-05-06 12:09 49.96713 3.42337 38499 ft 415 kts 204°
2026-05-06 12:10 49.94080 3.40586 38757 ft 414 kts 204°
2026-05-06 12:10 49.91479 3.38860 38830 ft 408 kts 204°
2026-05-06 12:10 49.86399 3.35491 38861 ft 420 kts 204°
2026-05-06 12:11 49.81008 3.31925 38873 ft 432 kts 203°
2026-05-06 12:11 49.75545 3.28318 38865 ft 444 kts 203°
2026-05-06 12:12 49.70113 3.24740 38860 ft 445 kts 203°
2026-05-06 12:12 49.64487 3.21043 38860 ft 444 kts 203°
2026-05-06 12:13 49.58883 3.17370 38869 ft 443 kts 203°
2026-05-06 12:13 49.53259 3.13693 38861 ft 443 kts 203°
2026-05-06 12:14 49.47664 3.09706 38859 ft 444 kts 212°
2026-05-06 12:14 49.42606 3.04562 38863 ft 443 kts 214°
2026-05-06 12:15 49.37471 2.99347 38862 ft 444 kts 214°
2026-05-06 12:15 49.32364 2.94174 38866 ft 445 kts 213°
2026-05-06 12:16 49.27188 2.88947 38868 ft 445 kts 213°
2026-05-06 12:16 49.22055 2.83775 38873 ft 444 kts 213°
2026-05-06 12:17 49.16896 2.78590 38874 ft 446 kts 213°
2026-05-06 12:17 49.11933 2.73615 38874 ft 445 kts 214°
2026-05-06 12:18 49.06794 2.68476 38879 ft 444 kts 214°
2026-05-06 12:18 49.02354 2.64046 38884 ft 444 kts 214°
2026-05-06 12:19 48.97604 2.59318 38886 ft 444 kts 214°
2026-05-06 12:19 48.92809 2.54555 38892 ft 445 kts 214°
2026-05-06 12:20 48.84356 2.46186 38896 ft 447 kts 213°
2026-05-06 12:21 48.79418 2.41314 38905 ft 447 kts 214°
2026-05-06 12:21 48.74803 2.36770 38895 ft 446 kts 214°
2026-05-06 12:22 48.70298 2.32344 38902 ft 446 kts 213°